Wetbulb
62.04 60.89 59.79 59.78 59.70 58.94 57.74 56.88 56.36 56.24 56.00 56.26 56.00 55.31 54.97 54.81 53.25 50.46 48.32 47.80 47.17 46.46 46.73 46.66 46.43 45.65 44.74 44.72 44.98 45.02 45.29 47.47 45.11 46.77 47.58 48.38 46.73 46.42 46.93 47.30 49.64 48.11 48.93
61.55 61.64 59.97 59.08 57.91 57.00 56.44 54.64 53.13 51.73 52.25 53.27 54.81 55.63 54.97 53.23 51.00 49.10 48.36 47.80 46.81 46.26 45.83 45.80 45.43 47.31 44.40 43.68 43.60 43.26 43.53 44.28 44.52 42.06 44.08 46.61 46.17 45.46 45.36 45.29 47.21 49.25 46.77
60.60 59.70 59.32 58.78 56.15 52.03 50.68 50.21 50.32 49.91 49.38 49.92 51.50 52.74 53.67 53.32 50.68 49.66 49.30 48.26 47.54 47.23 46.70 46.40 45.83 44.53 43.39 43.49 42.96 43.06 43.72 44.90 43.56 42.42 41.99 43.55 44.25 44.19 44.07 44.59 45.15 45.12 47.78
58.71 58.51 57.77 56.03 52.94 50.30 49.18 48.71 48.69 48.60 48.22 48.40 49.16 50.53 51.13 51.33 51.10 49.40 48.04 45.95 45.00 44.31 44.66 45.92 47.27 46.84 43.86 43.33 43.82 43.00 43.31 43.40 42.53 41.97 41.58 41.52 41.42 43.20 42.35 41.36 42.68 43.24 43.40
57.35 55.29 53.85 52.40 50.48 49.17 48.36 48.32 49.34 50.11 48.34 49.63 48.95 48.31 48.87 49.98 50.58 49.35 47.78 46.00 44.25 43.12 43.15 44.25 47.73 51.84 53.06 49.36 45.00 43.85 43.12 42.32 42.15 41.55 40.49 39.69 39.93 40.33 40.18 41.21 40.51 41.64 42.17
56.38 54.37 52.98 51.80 50.80 51.31 49.53 50.07 48.84 48.06 46.16 44.86 44.72 45.98 46.39 49.35 49.62 50.35 46.80 43.60 42.65 41.51 41.09 42.28 43.89 48.10 48.62 52.51 52.67 52.65 49.23 43.06 40.96 40.21 39.36 39.33 39.83 39.74 40.67 40.06 39.69 39.79 39.10
56.56 54.81 53.49 53.68 52.19 49.26 48.75 48.11 47.16 43.69 42.98 42.08 42.19 43.02 42.81 45.00 48.21 48.44 48.44 43.90 42.44 41.30 40.65 40.80 42.73 44.57 46.09 45.52 47.28 48.15 48.08 50.57 48.37 42.34 40.65 40.63 40.64 41.03 40.52 40.60 39.90 39.26 39.98
55.55 54.62 53.96 51.54 50.89 51.04 49.65 48.14 44.54 44.15 44.15 42.91 41.93 41.28 41.34 43.62 46.33 47.05 48.05 44.04 43.08 42.49 41.88 40.73 39.91 40.94 43.55 43.49 43.12 42.45 42.46 45.83 45.50 46.39 43.17 43.40 43.08 44.04 42.02 42.34 41.60 40.97 41.54
51.94 53.10 53.46 52.07 51.99 51.96 50.24 48.84 48.51 47.98 45.02 43.84 42.35 41.10 40.29 41.01 45.22 45.80 45.10 43.97 44.15 41.81 42.23 42.49 41.53 40.64 44.00 44.43 42.14 41.35 42.01 46.05 49.61 50.20 48.48 47.12 46.03 46.54 47.02 42.76 42.18 40.71 40.49
52.83 52.90 52.85 54.81 55.09 53.46 51.25 48.03 47.30 45.36 45.03 45.10 43.27 42.87 44.78 40.85 43.87 45.38 44.95 43.52 41.30 44.14 43.24 42.05 45.95 44.65 43.41 43.16 40.68 40.02 42.89 44.15 46.03 46.54 45.96 45.23 45.33 45.84 48.06 43.42 42.03 40.63 43.07
53.60 53.46 54.64 54.99 52.79 51.23 49.43 47.93 46.77 45.85 44.85 44.04 44.71 46.82 44.79 42.31 42.20 43.44 43.96 43.79 44.46 41.46 42.79 45.43 44.10 45.10 43.28 42.72 42.38 41.92 43.52 43.75 44.54 42.55 42.58 42.89 43.66 44.01 44.34 44.17 43.10 42.14 42.02
54.23 54.35 53.95 51.85 52.65 50.20 48.36 47.36 47.27 45.57 44.83 46.46 48.76 48.15 47.90 47.36 44.36 43.58 43.36 43.59 44.76 42.32 41.23 41.59 43.43 44.07 42.73 42.52 42.68 42.70 43.91 46.11 42.84 42.35 41.43 41.16 40.87 41.96 43.55 43.87 44.06 43.18 44.48
53.25 52.17 51.73 51.92 51.32 49.60 48.27 46.98 46.24 47.56 47.40 47.80 48.49 47.73 46.88 44.78 43.02 43.38 43.17 43.41 44.41 41.19 40.67 42.88 43.57 42.82 43.33 44.59 44.34 44.08 44.84 43.50 41.94 41.29 40.28 40.46 40.73 41.75 42.73 43.75 44.32 43.52 42.96
52.15 51.62 51.22 50.67 49.77 50.40 50.76 51.36 49.56 48.95 46.45 46.20 45.54 45.08 44.54 42.60 41.15 41.34 42.42 41.32 42.40 41.65 43.30 46.47 44.86 44.72 44.42 45.92 46.60 45.72 42.95 44.74 42.28 40.81 40.64 41.29 42.23 42.29 42.11 42.14 41.77 41.23 39.88
51.79 52.10 50.64 50.51 49.89 49.62 47.02 45.36 45.48 41.18 42.59 43.74 42.69 43.55 43.12 41.98 42.04 41.53 41.04 40.66 39.20 40.31 42.66 45.35 43.08 42.25 43.48 44.12 44.62 45.27 45.63 43.28 42.23 41.34 40.83 41.33 41.78 41.70 41.57 41.75 41.54 39.77 38.28
50.66 50.45 49.69 50.54 46.36 43.06 41.43 40.00 40.18 40.09 40.10 39.99 40.94 41.27 40.64 40.69 40.55 40.52 40.22 40.01 39.61 39.83 44.78 43.05 39.64 40.92 41.94 43.94 44.00 44.29 45.00 45.42 43.58 41.76 41.12 40.90 41.13 41.20 41.08 41.47 41.18 39.97 38.61
49.89 48.86 49.87 47.36 45.13 42.91 41.70 40.72 40.38 42.07 40.72 40.02 39.72 40.27 40.06 40.95 40.46 40.55 39.94 39.53 40.26 41.43 43.43 38.16 39.61 42.44 43.45 43.67 43.66 43.91 44.26 44.64 45.68 44.98 40.39 40.60 41.06 41.35 41.85 41.18 41.82 40.83 40.24
51.08 47.14 51.12 48.83 46.96 43.81 42.31 43.06 44.42 41.78 39.39 40.94 40.67 39.77 39.26 39.88 39.80 39.69 39.72 40.53 40.54 40.14 38.79 38.62 41.52 43.05 43.46 40.51 40.12 40.71 43.44 41.85 39.77 39.72 39.69 40.73 40.57 40.15 41.20 42.51 44.06 41.71 41.66
52.70 49.28 50.79 48.77 46.79 45.53 45.72 46.01 45.59 42.76 41.10 41.04 41.27 40.58 40.97 39.50 38.85 39.20 39.51 40.66 39.37 38.54 38.70 40.14 42.39 42.21 41.31 39.94 39.38 39.17 38.58 38.19 37.77 37.64 37.90 40.90 42.59 40.41 43.60 42.29 45.33 41.17 39.39
50.74 47.30 45.68 46.40 45.57 45.08 44.99 44.69 45.17 44.92 43.71 43.67 42.91 41.42 40.73 39.89 40.33 40.36 40.69 40.83 40.88 39.91 39.42 38.78 39.56 40.78 39.88 38.88 38.86 38.10 36.73 35.86 35.01 35.69 36.05 38.28 41.44 42.63 42.99 40.90 41.10 41.21 41.39
48.11 47.05 44.57 45.36 44.47 44.64 45.38 45.83 45.24 44.49 44.20 43.84 42.45 38.27 35.18 40.61 40.51 40.44 40.64 40.73 39.94 39.51 39.51 40.77 40.10 39.17 38.45 38.42 37.91 36.27 35.34 34.44 33.66 33.55 34.93 39.08 39.84 40.45 42.18 40.60 40.15 41.14 41.14
47.64 46.93 46.82 46.79 46.62 46.67 45.69 44.11 43.96 43.97 43.69 40.25 38.36 38.21 32.88 39.48 40.42 39.88 39.25 39.66 39.65 40.11 40.83 40.36 39.81 39.51 38.81 37.88 36.21 34.59 33.05 32.65 33.08 33.16 34.15 37.58 37.41 39.37 41.61 40.55 39.85 40.47 40.76
47.70 47.19 45.73 45.18 45.53 43.18 42.50 41.29 42.71 42.00 40.49 39.53 39.18 39.15 38.20 39.03 40.34 40.09 40.52 40.79 40.62 40.59 40.46 40.27 39.17 37.11 36.02 35.49 34.05 32.13 32.14 32.61 32.71 32.73 33.61 34.38 37.21 39.36 40.33 38.47 38.91 39.87 40.09
48.68 49.51 49.88 48.36 42.14 41.20 40.77 39.54 40.98 39.54 40.58 40.30 40.26 40.47 40.15 40.84 40.88 41.11 41.11 41.32 40.77 40.83 40.36 40.19 38.98 37.29 36.55 35.08 34.24 33.17 32.80 32.62 32.12 33.01 33.92 33.61 34.43 35.81 37.98 38.75 38.27 39.07 39.78
47.11 46.83 44.91 42.59 41.90 41.08 39.06 38.15 38.55 40.43 41.54 41.58 41.49 41.38 41.08 41.18 40.56 41.35 41.25 40.86 40.99 40.67 39.91 39.94 38.00 36.50 35.05 34.51 34.01 34.93 32.88 30.65 30.92 30.48 32.67 34.22 35.89 37.97 38.72 38.00 38.31 38.46 38.40
46.69 45.90 44.26 42.46 42.88 41.88 41.52 40.23 38.35 38.92 40.63 41.51 41.57 41.09 40.83 41.17 41.52 41.55 41.17 40.77 40.48 40.32 39.49 38.50 36.84 36.16 35.75 35.20 34.47 31.97 30.94 30.92 31.90 30.93 33.74 36.32 36.44 36.87 37.85 37.99 38.18 37.37 38.01
MSLP
1016.79 1016.76 1016.78 1017.14 1017.61 1017.93 1018.20 1018.43 1018.72 1018.88 1018.92 1019.12 1019.31 1019.50 1019.40 1019.33 1019.41 1019.59 1020.05 1020.32 1020.35 1020.52 1020.52 1020.51 1020.55 1020.28 1020.07 1019.77 1019.41 1019.25 1019.32 1019.34 1020.11 1020.39 1020.03 1019.63 1019.48 1019.30 1019.03 1018.61 1018.24 1017.94 1017.61
1017.31 1017.43 1017.75 1017.99 1018.33 1018.76 1019.08 1019.14 1019.36 1019.59 1019.47 1019.59 1019.81 1020.12 1020.18 1020.02 1020.08 1020.31 1020.79 1021.00 1021.05 1021.24 1021.35 1021.14 1021.20 1020.86 1020.67 1020.50 1020.26 1020.20 1019.97 1019.75 1020.12 1020.75 1020.63 1020.27 1019.94 1019.78 1019.55 1019.20 1018.75 1018.20 1017.99
1017.82 1018.06 1018.37 1018.70 1019.22 1019.77 1020.00 1019.87 1020.10 1020.31 1020.33 1020.43 1020.46 1020.71 1020.67 1020.72 1020.90 1021.15 1021.31 1021.40 1021.65 1021.84 1021.79 1021.65 1021.56 1021.17 1021.26 1021.05 1020.95 1020.86 1020.74 1020.71 1020.68 1021.03 1021.23 1020.70 1020.41 1020.23 1019.99 1019.63 1019.18 1018.69 1018.15
1018.39 1018.61 1019.11 1019.35 1020.07 1020.25 1020.52 1020.55 1020.51 1020.89 1021.00 1021.19 1021.24 1021.34 1021.34 1021.36 1021.52 1021.67 1021.82 1021.98 1022.05 1022.36 1022.26 1021.99 1021.75 1021.53 1021.52 1021.42 1021.45 1021.46 1021.36 1021.39 1021.42 1021.51 1021.58 1021.44 1021.34 1020.91 1020.76 1020.57 1019.95 1019.33 1018.90
1019.01 1019.51 1019.91 1020.25 1020.51 1020.86 1021.07 1021.16 1021.49 1021.75 1021.99 1021.96 1021.83 1021.99 1022.05 1022.03 1022.08 1022.07 1022.27 1022.33 1022.61 1022.81 1022.62 1022.36 1022.06 1021.52 1021.26 1021.35 1021.45 1021.62 1021.59 1021.77 1021.80 1021.90 1022.06 1021.98 1021.86 1021.63 1021.51 1021.20 1020.77 1020.14 1019.47
1019.57 1020.00 1020.18 1020.58 1021.02 1021.35 1021.58 1021.93 1022.07 1022.29 1022.50 1022.46 1022.64 1022.67 1022.61 1022.70 1022.56 1022.35 1022.67 1022.83 1023.19 1023.17 1023.12 1022.87 1022.62 1022.26 1021.98 1021.67 1021.51 1021.39 1021.47 1021.72 1021.82 1021.99 1022.21 1022.30 1022.04 1021.87 1021.67 1021.45 1021.17 1020.89 1020.50
1019.65 1020.07 1020.55 1021.08 1021.53 1022.01 1022.23 1022.38 1022.78 1023.02 1022.93 1023.10 1023.24 1023.18 1023.24 1023.10 1022.88 1022.90 1022.92 1023.31 1023.45 1023.45 1023.45 1023.30 1023.05 1022.78 1022.52 1022.31 1022.01 1021.86 1021.72 1021.49 1021.51 1021.80 1022.02 1022.04 1021.98 1021.75 1021.62 1021.37 1021.27 1021.12 1020.71
1019.83 1020.32 1020.99 1021.40 1021.94 1022.25 1022.43 1022.80 1023.14 1023.37 1023.51 1023.45 1023.58 1023.59 1023.60 1023.67 1023.35 1023.10 1023.12 1023.51 1023.60 1023.68 1023.65 1023.63 1023.51 1023.31 1023.07 1022.76 1022.59 1022.35 1022.14 1021.88 1021.87 1021.78 1021.79 1021.77 1021.67 1021.42 1021.40 1021.36 1021.36 1021.11 1020.37
1020.21 1020.84 1021.32 1021.75 1022.18 1022.55 1022.95 1023.15 1023.37 1023.64 1023.74 1023.83 1023.90 1023.96 1023.98 1023.92 1023.63 1023.62 1023.59 1023.81 1023.78 1023.84 1023.84 1023.63 1023.52 1023.41 1023.25 1022.95 1022.86 1022.95 1022.52 1022.13 1021.79 1021.68 1021.69 1021.60 1021.46 1021.23 1020.99 1021.24 1021.32 1021.20 1020.88
1020.62 1021.16 1021.59 1021.93 1022.35 1022.79 1023.05 1023.39 1023.70 1023.83 1023.99 1024.16 1024.27 1024.22 1024.13 1024.10 1023.93 1023.75 1023.79 1023.98 1024.10 1024.09 1023.92 1023.73 1023.40 1023.41 1023.37 1023.21 1023.15 1023.30 1023.09 1022.87 1022.45 1022.03 1021.90 1021.71 1021.56 1021.33 1021.07 1021.13 1021.20 1021.29 1020.97
1020.89 1021.48 1021.80 1022.15 1022.56 1022.85 1023.25 1023.51 1023.79 1024.01 1024.19 1024.35 1024.37 1024.32 1024.23 1024.10 1024.19 1024.06 1024.00 1024.07 1024.11 1024.13 1024.10 1024.00 1023.52 1023.18 1023.31 1023.27 1023.21 1023.34 1023.39 1023.22 1022.88 1022.70 1022.48 1022.20 1021.93 1021.61 1021.35 1021.15 1021.01 1021.06 1020.84
1021.20 1021.67 1022.14 1022.45 1022.68 1023.01 1023.27 1023.64 1023.88 1024.14 1024.41 1024.37 1024.28 1024.21 1024.20 1024.32 1024.37 1024.28 1024.07 1024.08 1024.11 1024.30 1024.39 1024.02 1023.54 1023.22 1023.25 1023.30 1023.38 1023.37 1023.25 1023.03 1023.14 1023.10 1023.05 1022.98 1022.66 1022.20 1021.65 1021.21 1020.93 1020.74 1020.60
1021.43 1022.02 1022.27 1022.45 1022.68 1023.00 1023.41 1023.81 1024.09 1024.07 1024.24 1024.27 1024.37 1024.46 1024.48 1024.53 1024.65 1024.58 1024.51 1024.39 1024.26 1024.33 1024.23 1023.94 1023.67 1023.22 1023.25 1023.11 1023.32 1023.36 1023.33 1023.39 1023.49 1023.62 1023.55 1023.33 1022.99 1022.56 1021.86 1021.31 1020.76 1020.62 1020.48
1021.59 1022.03 1022.24 1022.56 1022.94 1023.18 1023.47 1023.68 1023.86 1024.13 1024.42 1024.55 1024.56 1024.56 1024.64 1024.85 1024.83 1024.73 1024.57 1024.55 1024.48 1024.44 1024.20 1023.63 1023.54 1023.45 1023.43 1023.41 1023.41 1023.49 1023.59 1023.61 1023.66 1023.79 1023.73 1023.27 1022.84 1022.40 1022.10 1021.73 1021.44 1021.14 1020.93
1021.54 1021.96 1022.43 1022.65 1022.90 1023.17 1023.65 1024.09 1024.23 1024.56 1024.63 1024.73 1024.73 1024.64 1024.73 1024.83 1024.76 1024.62 1024.61 1024.74 1024.73 1024.66 1024.43 1023.95 1024.00 1024.08 1023.95 1023.82 1023.81 1023.76 1023.75 1023.76 1023.83 1023.81 1023.74 1023.51 1023.13 1022.70 1022.32 1021.86 1021.58 1021.50 1021.35
1021.52 1021.97 1022.28 1022.64 1023.16 1023.67 1024.17 1024.64 1024.64 1024.63 1024.52 1024.35 1024.33 1024.32 1024.67 1024.64 1024.59 1024.58 1024.60 1024.58 1024.60 1024.46 1024.29 1024.39 1024.56 1024.56 1024.36 1024.16 1024.13 1024.05 1023.99 1023.99 1024.01 1023.96 1023.85 1023.68 1023.44 1023.07 1022.62 1022.02 1021.67 1021.56 1021.38
1021.20 1021.75 1022.13 1022.69 1023.25 1023.77 1024.11 1024.46 1024.75 1024.69 1024.52 1024.51 1024.48 1024.56 1024.46 1024.47 1024.60 1024.56 1024.63 1024.58 1024.40 1024.21 1024.53 1024.83 1024.78 1024.61 1024.40 1024.24 1024.19 1024.16 1024.20 1024.18 1024.13 1024.05 1023.99 1023.80 1023.48 1022.99 1022.63 1022.19 1021.73 1021.42 1021.17
1020.92 1021.34 1021.78 1022.37 1022.96 1023.56 1023.98 1024.28 1024.51 1024.63 1024.67 1024.68 1024.63 1024.77 1024.72 1024.62 1024.63 1024.61 1024.65 1024.52 1024.80 1024.81 1024.98 1025.03 1024.76 1024.62 1024.60 1024.72 1024.62 1024.59 1024.46 1024.46 1024.41 1024.32 1024.12 1023.83 1023.56 1023.24 1022.69 1022.22 1021.78 1021.59 1021.30
1020.80 1021.30 1021.59 1022.18 1022.65 1023.08 1023.53 1023.85 1024.15 1024.32 1024.55 1024.72 1024.85 1024.90 1024.76 1024.79 1024.70 1024.66 1024.68 1024.89 1025.16 1025.20 1025.07 1024.92 1024.76 1024.69 1024.74 1024.85 1024.87 1024.89 1024.75 1024.71 1024.68 1024.54 1024.32 1023.97 1023.48 1023.20 1022.65 1022.27 1021.81 1021.45 1021.18
1020.60 1020.92 1021.54 1022.14 1022.64 1023.03 1023.28 1023.68 1023.90 1024.03 1024.33 1024.58 1024.76 1024.95 1024.82 1024.91 1024.93 1024.82 1024.76 1024.92 1025.11 1025.11 1024.97 1024.87 1024.75 1024.81 1024.85 1024.95 1025.03 1025.08 1025.01 1024.94 1024.84 1024.65 1024.41 1024.04 1023.60 1023.14 1022.75 1022.39 1021.95 1021.60 1021.24
1020.71 1021.17 1021.52 1022.09 1022.54 1022.72 1023.04 1023.35 1023.50 1023.80 1024.06 1024.32 1024.49 1024.40 1024.49 1024.72 1024.82 1024.84 1024.82 1024.83 1024.97 1024.92 1024.82 1024.72 1024.80 1024.89 1024.96 1025.06 1025.22 1025.21 1025.13 1025.06 1024.95 1024.77 1024.52 1024.13 1023.68 1023.21 1022.74 1022.42 1022.04 1021.58 1021.38
1020.74 1021.12 1021.58 1021.94 1022.12 1022.41 1022.71 1022.79 1023.17 1023.50 1023.80 1024.14 1024.32 1024.29 1024.41 1024.53 1024.62 1024.67 1024.70 1024.67 1024.72 1024.61 1024.64 1024.77 1024.84 1024.93 1025.01 1025.13 1025.20 1025.24 1025.16 1025.12 1024.98 1024.82 1024.58 1024.25 1023.85 1023.39 1022.90 1022.52 1022.09 1021.71 1021.44
1020.86 1021.17 1021.49 1021.66 1021.82 1022.09 1022.40 1022.51 1022.97 1023.35 1023.66 1023.97 1024.20 1024.36 1024.41 1024.37 1024.38 1024.40 1024.42 1024.39 1024.37 1024.48 1024.59 1024.73 1024.91 1025.09 1025.15 1025.14 1025.19 1025.27 1025.22 1025.05 1024.93 1024.81 1024.52 1024.20 1023.83 1023.41 1023.00 1022.71 1022.31 1021.86 1021.54
1020.55 1020.82 1021.05 1021.35 1021.73 1022.12 1022.34 1022.62 1022.98 1023.24 1023.44 1023.72 1023.92 1024.04 1024.11 1024.07 1024.08 1024.13 1024.17 1024.17 1024.27 1024.40 1024.55 1024.70 1024.89 1025.02 1025.08 1025.17 1025.18 1025.12 1025.02 1024.84 1024.70 1024.54 1024.34 1024.15 1023.71 1023.30 1022.88 1022.52 1022.14 1021.75 1021.47
1020.32 1020.61 1020.92 1021.25 1021.58 1021.89 1022.33 1022.70 1022.89 1022.96 1023.12 1023.28 1023.47 1023.55 1023.57 1023.73 1023.88 1023.92 1023.96 1024.00 1024.14 1024.31 1024.38 1024.56 1024.76 1024.78 1024.86 1024.93 1024.95 1024.81 1024.75 1024.64 1024.43 1024.21 1024.03 1023.93 1023.61 1023.09 1022.72 1022.47 1022.11 1021.79 1021.55
1020.16 1020.42 1020.79 1021.10 1021.52 1021.81 1022.12 1022.41 1022.59 1022.64 1022.86 1022.87 1022.96 1023.01 1023.10 1023.27 1023.38 1023.52 1023.68 1023.80 1023.96 1024.09 1024.21 1024.42 1024.55 1024.61 1024.71 1024.78 1024.73 1024.72 1024.63 1024.43 1024.20 1023.95 1023.74 1023.50 1023.29 1022.92 1022.60 1022.42 1022.09 1021.96 1021.75
Wind_Speed
9 9 11 9 8 8 8 7 7 7 7 7 6 6 6 7 7 8 8 7 10 7 7 7 8 6 5 5 4 4 4 2 4 3 3 4 5 5 6 6 6 6 6
8 9 10 9 9 8 7 7 7 7 6 6 6 6 7 7 7 8 8 6 8 8 6 7 7 5 7 6 5 6 5 5 4 4 3 5 5 3 4 4 5 5 5
8 9 9 9 8 7 7 7 7 7 7 8 7 6 6 7 8 7 7 7 7 6 6 6 6 7 7 5 6 6 5 4 5 3 3 2 2 3 4 4 4 5 3
8 9 9 9 8 7 6 7 8 6 7 7 7 7 7 6 6 6 6 7 7 6 6 6 6 6 5 6 6 6 4 5 4 4 3 3 2 3 2 3 5 3 4
8 8 7 7 7 7 7 7 7 8 7 7 8 7 6 6 4 6 6 7 7 6 6 6 6 7 7 7 3 4 5 4 3 3 3 3 3 3 3 3 3 4 3
7 7 6 6 6 7 7 7 7 7 7 7 7 7 7 4 8 10 7 7 6 6 6 6 6 10 8 11 9 9 5 3 3 2 2 2 3 2 3 3 3 4 4
10 7 7 6 7 6 6 7 7 6 6 7 6 6 6 4 5 7 9 5 5 6 6 6 6 5 8 6 9 9 9 8 3 2 2 1 2 2 2 4 2 2 3
8 7 6 7 7 6 6 7 6 4 5 4 5 5 5 4 2 7 8 6 5 5 4 4 4 5 5 6 6 7 6 5 6 3 0 3 3 4 3 1 2 5 4
7 7 6 6 6 6 6 5 4 4 3 4 4 5 5 5 7 3 4 3 4 3 2 3 3 4 6 5 7 7 7 6 7 7 6 6 7 6 2 1 3 4 3
7 7 6 5 6 6 6 6 2 2 3 4 3 1 3 4 8 3 3 1 1 2 2 4 7 5 6 5 5 4 5 5 6 6 6 7 7 7 7 2 1 1 2
7 6 6 5 6 6 5 3 4 3 3 3 3 2 2 3 5 7 6 1 3 2 3 3 4 8 5 3 2 3 3 5 6 4 4 5 4 5 4 4 2 2 2
7 6 6 6 4 4 7 4 3 4 3 3 2 2 2 3 3 5 4 3 2 1 2 3 5 7 5 2 2 4 5 4 3 4 4 4 4 4 5 5 4 3 3
7 6 6 6 5 5 5 5 3 4 4 3 3 2 2 1 3 6 7 5 4 2 3 5 5 6 5 4 7 8 6 4 3 3 3 3 3 4 6 4 5 5 3
7 6 5 6 4 3 2 2 2 2 2 2 1 1 2 1 2 3 2 3 4 3 4 3 6 5 6 3 4 4 3 3 2 2 3 4 4 4 4 3 2 4 3
6 6 5 4 5 3 4 2 2 3 2 2 1 1 1 2 2 3 2 1 2 3 5 2 3 4 3 2 2 3 3 4 4 3 3 4 3 4 3 3 2 2 2
6 5 5 4 4 4 4 3 6 5 6 0 5 3 0 1 2 1 1 4 7 5 1 3 2 2 2 2 2 2 3 4 3 3 3 3 3 4 4 3 1 1 2
7 6 4 4 4 4 4 4 4 2 2 2 2 4 2 3 1 2 4 5 5 1 3 2 1 2 2 2 1 1 0 3 3 3 2 4 4 3 4 3 3 2 2
6 8 6 6 5 5 4 4 3 4 3 2 1 1 2 3 2 3 6 5 3 5 2 0 2 3 1 1 2 2 2 3 3 3 4 4 4 3 4 4 4 3 3
6 4 5 5 4 4 4 4 3 3 3 2 1 1 4 4 1 3 1 2 1 1 1 2 2 1 1 0 1 1 1 2 2 3 3 4 4 4 4 4 5 6 5
5 7 6 5 4 4 3 3 4 4 4 4 3 3 1 1 1 2 1 1 1 2 3 3 3 1 1 0 1 0 2 3 3 3 4 4 4 4 4 5 5 4 4
4 5 7 4 4 4 3 5 4 4 4 4 4 3 5 3 3 3 2 1 1 3 2 3 3 2 1 1 0 1 2 2 3 3 4 4 5 6 5 4 4 4 4
4 5 4 5 4 4 4 4 4 4 5 4 3 1 4 2 3 3 2 3 3 3 3 3 2 1 1 2 1 1 2 3 3 4 4 4 5 5 4 4 4 3 3
5 5 4 3 3 3 4 4 4 5 5 5 4 4 3 3 4 4 4 3 3 3 3 2 3 2 1 1 1 0 2 3 4 3 4 4 4 4 4 4 4 3 3
5 5 5 4 4 4 4 4 4 5 5 5 5 5 4 4 5 5 4 3 3 3 3 3 3 4 2 1 1 2 3 4 3 4 5 4 4 5 4 3 3 4 3
5 3 3 5 5 5 5 4 5 5 5 5 5 4 4 4 4 4 4 4 4 4 5 4 4 4 4 4 3 3 4 5 5 4 3 3 5 6 4 2 3 3 3
4 3 4 4 4 4 5 5 5 5 5 5 5 5 5 5 5 5 4 4 4 4 5 4 5 6 6 3 2 3 4 5 5 4 2 2 3 3 3 3 4 3 4
Wind_Direction
84 83 80 73 69 66 66 64 62 63 67 64 64 62 67 69 61 69 60 46 61 47 32 44 40 22 32 21 22 34 39 69 103 12 25 7 36 23 6 4 8 8 352
85 86 88 86 77 74 73 66 63 63 53 64 68 69 75 74 70 75 76 55 65 58 41 50 37 33 36 25 29 33 38 30 100 90 346 8 39 3 337 360 347 350 347
91 91 87 84 78 73 68 67 62 62 49 43 49 59 71 69 74 65 72 70 59 49 45 50 38 48 40 30 31 37 30 38 45 86 20 326 351 18 342 332 333 334 339
94 89 86 84 86 85 81 78 75 73 74 62 52 57 58 75 83 77 72 62 60 46 36 39 40 58 68 59 50 40 41 50 40 49 29 2 7 326 345 339 342 338 329
90 86 89 88 91 91 84 71 65 59 64 71 71 52 52 66 76 79 64 67 56 45 35 28 28 53 65 81 75 40 54 49 42 46 32 9 357 349 0 309 311 317 318
96 104 105 110 96 89 82 89 92 85 65 69 60 68 61 63 82 79 83 72 58 55 44 26 24 32 32 50 52 52 64 71 36 54 3 6 330 303 329 339 334 356 333
124 124 120 105 86 77 88 81 75 77 83 77 71 77 75 68 96 110 98 86 81 69 57 35 29 20 32 30 22 35 29 41 83 147 42 327 317 280 315 323 328 299 281
121 107 97 110 122 118 106 112 106 95 84 79 65 55 64 29 327 126 117 113 91 81 82 66 46 24 21 45 26 22 10 26 13 20 100 294 243 298 241 233 288 291 283
111 116 126 134 123 114 109 113 103 102 80 66 54 43 44 13 24 153 98 54 82 85 27 15 33 4 355 46 48 18 359 9 353 15 34 14 4 350 342 18 353 8 328
130 133 140 126 121 129 132 118 94 99 109 102 96 95 88 51 26 110 81 67 98 327 332 345 322 299 344 26 58 38 359 350 348 358 -0 357 4 354 15 37 297 327 281
123 133 135 124 128 130 119 115 132 128 123 147 168 192 118 84 35 66 65 11 280 278 324 332 310 325 335 344 111 38 326 323 347 6 359 354 351 355 351 352 322 220 301
132 131 129 138 135 123 126 136 155 156 188 230 227 247 185 139 84 41 42 43 16 59 346 290 293 313 314 3 74 5 18 44 22 15 10 354 345 337 330 336 342 341 251
136 145 151 143 137 142 149 153 158 200 205 235 243 263 268 30 35 60 65 32 42 358 294 290 282 82 93 74 53 33 28 31 26 20 350 320 284 288 307 336 344 3 353
148 151 153 146 159 181 141 159 154 189 222 250 311 278 291 30 5 357 9 352 353 20 337 352 50 56 56 65 51 25 21 24 45 13 324 301 313 343 339 333 326 339 349
149 156 161 171 173 148 85 45 98 75 175 159 184 160 139 291 265 237 237 350 333 298 303 42 35 13 22 61 37 9 18 24 20 354 359 347 335 330 321 314 311 332 5
148 161 171 149 134 120 124 90 44 67 41 202 168 141 195 242 261 299 313 304 308 317 70 48 33 1 316 29 351 6 17 7 10 358 354 342 333 332 324 314 276 275 317
155 156 137 120 139 161 160 155 160 333 13 65 100 154 157 167 100 60 1 330 14 24 68 52 326 289 277 238 326 3 46 16 358 18 352 333 327 322 336 312 316 305 303
163 164 167 169 170 174 174 181 171 176 203 236 230 166 225 157 98 24 16 50 16 22 70 238 289 299 12 21 15 19 52 20 7 352 344 330 331 316 321 328 328 323 307
165 175 161 165 179 170 172 197 193 187 210 220 204 327 265 255 286 303 85 105 115 312 275 291 333 332 128 103 354 357 55 24 342 337 336 328 325 328 327 328 328 329 325
165 154 148 163 163 184 194 166 186 193 193 205 204 215 236 92 297 284 288 159 257 265 281 274 275 162 99 41 180 239 359 6 348 342 332 324 318 314 324 326 331 334 335
152 152 152 142 172 189 180 205 210 192 196 195 211 205 186 173 212 222 238 236 184 250 297 143 138 142 103 43 148 333 349 338 333 329 328 326 328 331 327 319 313 329 346
150 152 162 181 192 197 194 189 172 169 167 170 196 194 178 191 188 202 231 236 211 232 184 185 153 108 147 155 196 324 344 328 320 324 322 321 324 315 315 321 329 329 331
154 166 181 206 207 187 176 168 165 175 172 188 183 188 202 211 212 211 225 227 178 176 174 160 141 137 141 118 98 150 319 301 286 282 296 312 314 319 322 322 316 325 344
167 186 204 197 164 173 167 170 182 189 181 192 196 203 211 206 206 212 213 212 193 183 177 172 170 172 185 212 258 278 281 292 289 279 284 286 299 312 313 316 320 322 309
161 200 175 165 184 177 162 174 190 196 199 194 204 204 197 197 211 215 207 194 187 176 183 173 175 184 190 200 229 296 323 310 296 298 276 269 284 307 311 305 321 334 344
165 171 192 176 183 190 189 182 202 195 201 200 204 202 199 200 209 208 201 200 188 192 185 181 186 189 190 206 247 328 330 331 333 319 256 310 326 358 10 354 21 7 352